Tracking 27111 objects as of 28-Mar-2023
HD Live streaming from Space Station
objects crossing your sky now

STARLINK-5571

Track STARLINK-5571 now!
10-day predictions
STARLINK-5571 is classified as:


NORAD ID: 55380
Int'l Code: 2023-013BB
Perigee: 361.2 km
Apogee: 363.0 km
Inclination: 43.0 °
Period: 91.6 minutes
Semi major axis: 6733 km
RCS: Unknown
Launch date: January 26, 2023
Source: United States (US)
Launch site: AIR FORCE EASTERN TEST RANGE (AFETR)
Your satellite tracking list
Your tracking list is empty




NASA's NSSDC Master Catalog

Two Line Element Set (TLE):
1 55380U 23013BB  23087.33799411  .00006955  00000-0  56403-4 0  9994
2 55380  43.0017  35.4699 0001360 275.9899  84.0814 15.71371850 10063
Source of the keplerian elements: AFSPC